Regional Weather Roundup
Issued by NWS Goodland, KS

Home | Current Version | Previous Version | Graphics & Text | Print | Product List | Glossary On
Versions: 1 2 3 4 5 6 7 8 9 10 11 12 13 14 15 16 17 18 19 20 21 22 23 24 25 26 27 28 29 30 31 32 33 34 35 36 37 38 39 40 41 42 43 44 45 46 47 48 49 50
000
ASUS43 KGLD 232008
RWRGLD

GOODLAND FORECAST AREA HOURLY WEATHER ROUNDUP
NATIONAL WEATHER SERVICE GOODLAND KS
200 PM MDT SAT MAY 23 2015

...OFFICIAL OBSERVATIONS...

CITY           SKY/WX    TMP DP  RH WIND       PRES   REMARKS
GOODLAND KS    MOSUNNY   65  53  65 SE12      29.95F
HILL CITY KS   CLOUDY    63  55  75 E12       29.99F
IMPERIAL NEB   CLOUDY    61  53  75 SE10      29.99F
MCCOOK NEB     CLOUDY    66  54  65 SE15      30.00F
AKRON CO       PTSUNNY   67  52  58 SE18G24   29.92F
BURLINGTON CO  MOSUNNY   65  52  62 SE20G30   29.95F
LIMON CO       CLOUDY    59  49  69 SE20      29.94F
$$

...UNOFFICIAL OBSERVATIONS...

CITY           SKY/WX    TMP DP  RH WIND       PRES   REMARKS
COLBY KS       CLOUDY    66  59  77 SE15G22   29.98F
GOVE KS          N/A     66  32  28 MISG        N/A
LENORA KS        N/A     63  32  31 MISG        N/A
NORTON KS      SUNNY     61  54  77 E12G17    29.98F
SHARON SPRINGS   N/A     69  58  68 MISG        N/A
KIT CARSON CO    N/A     65  52  62 MISG        N/A
$$


USA.gov is the U.S. government's official web portal to all federal, state and local government web resources and services.